Location: Amarillo Post Office Jordan Station
(35.1907°N, 101.9342°W)
Time: 13:45:56
(UTC+00:00)

YAOGAN 6 - Pass Details

Date: 24 January 2021
Orbit: 465 x 503 km, 97.0° (Epoch: 03 March)

Event Time Altitude Azimuth Distance (km) Brightness Sun altitude
Rises 12:13:36 0° 17° (NNE) 2,606 6.4 -20.1°
Reaches altitude 10° 12:15:45 10° 23° (NNE) 1,718 5.5 -19.6°
Maximum altitude 12:19:21 49° 99° (E) 656 3.6 -18.9°
Drops below altitude 10° 12:22:55 10° 175° (S) 1,699 5.5 -18.2°
Sets 12:25:01 0° 181° (S) 2,574 6.4 -17.8°
